This is the latest recevied weather packets stored in our database for station/object VU2IB-13. If no packets are shown the sender has not sent any weather packets the latest 1 day(s).
| Time | Temp. | Humidity | Pressure | Rain* | Wind** | Luminosity | Snow |
|---|---|---|---|---|---|---|---|
| 1778060521 | 33.33° C | 35% | 1004.4 hPa | - | - | - | - |
| 1778060458 | 33.33° C | 36% | 1004.3 hPa | - | - | - | - |
| 1778060333 | 33.33° C | 35% | 1004.3 hPa | - | - | - | - |
| 1778060271 | 33.33° C | 36% | 1004.4 hPa | - | - | - | - |
| 1778060210 | 33.33° C | 35% | 1004.4 hPa | - | - | - | - |
| 1778060084 | 32.78° C | 34% | 1004.4 hPa | - | - | - | - |
| 1778059961 | 32.78° C | 33% | 1004.5 hPa | - | - | - | - |
| 1778059900 | 32.78° C | 33% | 1004.5 hPa | - | - | - | - |
| 1778059837 | 32.78° C | 33% | 1004.5 hPa | - | - | - | - |
| 1778059776 | 32.78° C | 34% | 1004.6 hPa | - | - | - | - |
| 1778059653 | 32.78° C | 35% | 1004.5 hPa | - | - | - | - |
| 1778059530 | 32.78° C | 36% | 1004.5 hPa | - | - | - | - |
| 1778059283 | 32.78° C | 40% | 1004.7 hPa | - | - | - | - |
| 1778059222 | 32.78° C | 39% | 1004.7 hPa | - | - | - | - |
| 1778059160 | 32.78° C | 41% | 1004.7 hPa | - | - | - | - |
| 1778059098 | 32.78° C | 39% | 1004.7 hPa | - | - | - | - |
| 1778059037 | 32.78° C | 39% | 1004.7 hPa | - | - | - | - |
| 1778058976 | 32.78° C | 39% | 1004.7 hPa | - | - | - | - |
| 1778058915 | 32.78° C | 39% | 1004.7 hPa | - | - | - | - |
| 1778058854 | 32.78° C | 39% | 1004.7 hPa | - | - | - | - |
| 1778058792 | 32.78° C | 38% | 1004.7 hPa | - | - | - | - |
| 1778058731 | 32.78° C | 37% | 1004.7 hPa | - | - | - | - |
| 1778058670 | 32.78° C | 36% | 1004.8 hPa | - | - | - | - |
| 1778058609 | 32.78° C | 36% | 1004.7 hPa | - | - | - | - |
| 1778058425 | 32.78° C | 34% | 1004.9 hPa | - | - | - | - |
* Rain since midnight (hover to see other rain measurements)
** Current wind speed in m/s (hover to see current wind gust speed)